Wetbulb
59.57 59.71 59.74 59.48 58.86 58.62 57.56 55.84 53.64 50.28 50.78 53.63 54.58 56.24 56.55 56.18 55.28 55.66 54.95 54.93 56.32 56.56 56.83 56.86 56.61 56.39 56.05 56.46 57.51 59.60 61.16 60.96 60.71 61.17 60.83 59.04 57.91 57.38
59.90 59.22 58.71 58.11 57.96 57.39 57.17 56.84 56.23 54.58 52.42 55.39 54.66 54.07 54.39 53.87 54.19 54.03 53.51 51.99 53.48 53.59 54.05 53.75 53.83 54.28 54.93 55.41 56.40 57.44 58.47 59.47 59.85 60.74 60.77 59.40 57.59 56.76
56.61 56.86 52.67 53.99 52.94 52.86 52.69 52.06 50.66 50.06 48.66 50.57 51.73 51.01 51.03 50.92 51.14 51.14 50.48 49.35 48.80 51.08 51.14 51.01 51.14 51.41 51.95 52.64 53.64 54.90 56.79 57.69 58.55 60.02 60.34 59.28 57.95 56.80
49.16 49.05 49.05 48.75 47.41 47.66 48.09 47.52 47.45 48.47 47.38 45.65 47.23 46.77 46.95 48.56 47.80 45.84 46.21 47.14 45.69 48.93 50.45 51.32 51.52 51.55 51.59 51.37 51.72 52.38 53.15 55.15 55.86 57.69 58.66 57.86 57.10 56.10
47.31 46.12 45.70 45.53 44.49 45.12 45.12 44.75 43.85 43.86 44.40 43.06 42.19 43.00 41.97 41.94 41.23 42.16 42.73 42.98 45.08 47.23 48.57 48.89 49.66 50.19 51.01 51.33 51.31 51.21 51.39 52.09 53.93 55.23 55.26 55.39 55.09 54.61
44.31 42.97 43.04 41.74 41.55 42.21 41.54 40.59 40.43 39.40 38.69 38.07 37.62 37.32 37.23 38.83 39.74 38.63 38.80 40.22 40.63 42.20 44.19 45.88 47.81 48.70 49.10 49.36 49.47 48.95 48.99 49.95 52.71 53.96 53.04 52.23 51.84 51.71
40.80 41.09 40.95 42.11 43.66 41.86 38.93 37.39 37.14 36.69 36.42 35.50 34.76 35.31 35.05 35.14 34.91 36.95 36.71 37.91 37.92 38.72 39.52 40.65 41.57 42.52 42.95 45.57 46.31 47.48 48.47 49.77 50.73 52.84 52.51 51.37 49.71 49.00
37.60 37.40 38.26 38.66 39.17 40.48 39.91 39.46 38.51 35.29 33.67 32.52 32.18 32.10 32.60 33.09 34.32 34.67 35.20 34.17 32.19 37.10 36.38 38.03 38.73 39.33 41.04 42.05 45.21 46.78 47.90 48.53 49.45 50.93 51.06 50.73 49.06 47.37
35.25 35.22 36.26 37.48 36.32 35.34 37.07 37.40 36.79 37.67 37.39 33.83 31.31 31.21 31.85 32.95 33.41 33.14 34.12 34.25 34.58 38.37 38.48 36.23 38.86 37.76 39.94 42.18 45.34 46.27 46.93 47.50 48.08 48.62 49.73 49.32 48.14 46.79
34.02 33.55 33.53 34.17 35.96 35.02 33.38 32.23 32.21 32.57 33.53 34.51 33.03 34.59 35.56 36.24 36.19 36.77 37.04 36.52 35.98 36.17 36.77 33.76 35.85 35.92 39.04 38.63 42.81 43.41 43.89 44.77 45.65 47.16 48.45 48.15 46.47 45.61
33.23 33.08 33.07 32.64 37.69 38.12 32.90 31.10 30.76 31.32 35.76 37.20 37.42 37.16 37.33 37.94 38.39 36.81 34.48 33.49 32.81 34.46 35.09 34.89 35.20 35.49 36.05 37.76 36.26 39.34 40.55 41.75 43.14 45.35 48.17 46.82 45.43 43.61
31.28 31.83 37.08 34.45 37.60 37.62 32.32 29.97 28.33 28.92 31.57 31.51 30.89 32.92 34.62 35.30 37.88 36.66 35.80 32.71 32.49 32.29 34.77 33.26 34.96 32.82 33.30 33.11 33.15 34.36 34.56 38.96 42.05 46.54 46.32 44.54 42.41 37.78
30.39 30.21 31.06 36.84 37.11 36.97 36.24 29.67 31.13 34.01 31.71 28.44 28.11 30.09 32.10 32.52 33.40 34.34 34.14 34.25 31.70 31.62 35.60 34.30 32.39 32.67 31.98 32.46 32.07 32.44 32.78 34.56 35.93 37.37 43.02 40.39 37.85 36.21
30.45 30.87 30.96 36.33 36.70 35.81 33.36 34.85 35.11 32.61 28.23 27.35 28.57 29.16 29.54 30.10 31.03 32.09 33.10 34.46 34.59 32.96 34.25 32.54 30.99 32.32 32.07 32.23 30.54 31.85 32.17 32.43 32.75 32.30 32.63 35.01 35.74 36.56
31.90 33.63 35.88 35.92 35.60 32.18 33.14 33.44 32.40 27.68 26.18 28.03 27.80 28.28 29.71 30.54 31.30 32.01 33.39 33.60 33.24 33.20 33.19 32.08 31.25 31.77 31.86 31.50 31.25 30.39 31.74 31.30 32.19 31.79 30.86 31.35 31.37 30.86
32.66 30.29 33.53 34.29 33.78 31.89 29.87 29.23 28.32 26.51 27.53 27.88 28.12 28.88 29.73 29.95 30.15 31.54 31.24 32.23 31.64 29.06 25.34 25.89 28.10 31.18 31.00 31.82 31.25 29.39 30.43 27.76 29.32 29.96 29.56 29.85 30.01 31.13
33.02 29.19 27.44 27.03 26.42 26.12 26.17 25.82 25.98 25.75 27.65 28.09 26.81 26.26 27.93 28.20 28.51 30.71 31.19 31.56 29.73 28.61 28.26 28.52 28.16 29.16 31.26 30.94 26.91 23.85 27.19 27.89 28.45 28.34 29.28 26.88 28.26 28.91
31.51 29.15 24.83 24.06 24.10 24.37 24.88 25.19 26.31 26.67 26.99 26.21 25.89 25.87 25.40 26.26 26.69 29.08 30.59 29.91 29.75 27.45 27.99 28.11 26.92 27.49 28.63 29.31 32.35 24.37 27.13 28.28 29.02 29.65 28.75 24.81 25.29 28.52
29.50 28.65 24.72 24.07 24.11 24.16 23.77 25.61 25.16 25.99 26.33 25.31 24.70 25.16 26.13 25.18 25.61 25.65 27.90 29.07 29.23 27.13 27.95 29.19 23.23 24.20 21.38 22.39 27.11 32.50 24.86 26.52 26.68 28.06 28.04 26.76 25.71 28.59
28.43 27.05 24.25 24.01 23.38 24.43 25.52 25.39 25.08 25.05 24.60 24.50 24.76 25.19 25.08 24.29 23.65 23.97 25.99 27.63 28.96 27.68 28.69 28.57 21.09 22.94 23.37 23.74 23.55 27.33 31.39 23.90 24.33 26.12 27.00 29.49 30.87 33.13
27.72 26.84 26.94 26.16 26.38 25.77 25.67 25.35 24.93 23.95 23.78 16.83 20.97 21.93 22.91 22.58 22.96 23.48 24.57 28.02 30.25 27.86 25.43 28.06 24.29 31.64 27.50 27.53 24.81 26.10 29.81 32.09 29.16 24.92 27.41 26.52 26.74 27.77
27.90 26.97 26.83 26.69 26.63 25.80 25.54 24.98 24.34 22.07 19.00 19.24 20.49 21.73 22.29 22.50 22.43 22.88 23.83 23.99 27.01 27.63 24.73 23.12 30.87 28.55 27.29 25.78 23.85 25.22 27.70 29.90 32.52 33.20 32.75 30.79 26.92 23.73
28.06 27.63 27.36 27.14 26.98 26.31 25.46 17.86 18.80 21.90 19.76 20.05 19.51 20.24 21.37 21.10 22.84 23.70 23.75 24.73 26.37 26.16 23.21 23.87 25.18 27.99 26.94 25.45 25.85 25.79 26.87 27.33 28.44 29.94 31.46 34.64 34.10 33.83
MSLP
1011.64 1011.50 1011.50 1011.41 1011.55 1011.62 1011.79 1011.89 1012.24 1012.64 1012.43 1011.93 1012.15 1011.82 1012.05 1012.39 1012.68 1012.89 1012.82 1012.62 1012.39 1012.19 1012.14 1012.01 1011.76 1011.51 1011.27 1010.86 1010.51 1010.14 1009.75 1009.61 1009.58 1009.63 1009.71 1010.19 1010.53 1010.98
1011.13 1011.07 1011.13 1011.07 1011.19 1011.43 1011.36 1011.55 1011.96 1012.24 1012.19 1011.83 1012.14 1012.51 1012.65 1012.51 1012.53 1012.64 1012.66 1012.54 1012.48 1012.29 1012.12 1012.01 1011.67 1011.30 1010.84 1010.41 1010.07 1009.68 1009.34 1009.09 1008.90 1008.73 1008.69 1009.12 1009.64 1010.15
1010.93 1010.95 1011.39 1011.20 1011.38 1011.76 1011.87 1012.21 1012.51 1012.46 1012.48 1012.42 1012.41 1012.69 1012.57 1012.50 1012.49 1012.41 1012.33 1012.35 1012.24 1011.95 1011.71 1011.52 1011.23 1010.88 1010.39 1010.04 1009.72 1009.26 1008.75 1008.45 1008.21 1007.82 1007.72 1007.89 1008.44 1008.94
1011.75 1011.56 1011.46 1011.71 1012.23 1012.36 1012.62 1012.90 1012.93 1013.12 1013.13 1013.23 1013.03 1012.88 1013.02 1012.90 1012.91 1012.62 1012.39 1012.26 1012.11 1011.61 1011.26 1010.88 1010.49 1010.11 1009.71 1009.28 1008.93 1008.59 1008.16 1007.83 1007.57 1007.11 1006.88 1007.24 1007.61 1008.04
1012.34 1012.02 1012.35 1012.42 1012.68 1012.89 1013.10 1013.47 1013.63 1013.60 1013.69 1013.77 1013.83 1013.68 1013.49 1013.27 1013.07 1012.80 1012.69 1012.29 1011.77 1011.41 1011.09 1010.64 1010.16 1009.71 1009.33 1009.05 1008.62 1008.13 1007.71 1007.33 1006.78 1006.41 1006.37 1006.59 1007.02 1007.37
1012.95 1013.10 1013.35 1013.14 1013.32 1013.54 1013.89 1014.04 1014.09 1014.11 1014.16 1014.25 1014.22 1014.02 1013.85 1013.43 1013.24 1013.01 1012.58 1012.24 1011.85 1011.31 1010.74 1010.30 1009.88 1009.51 1009.09 1008.70 1008.36 1007.82 1007.18 1006.63 1006.02 1005.78 1005.99 1006.21 1006.63 1006.79
1013.86 1013.85 1013.85 1013.73 1013.97 1014.13 1014.29 1014.59 1014.51 1014.48 1014.53 1014.54 1014.61 1014.49 1014.22 1013.91 1013.81 1013.38 1012.92 1012.36 1011.80 1011.18 1010.49 1010.13 1009.66 1009.35 1008.80 1008.26 1007.83 1007.31 1006.59 1006.01 1005.55 1005.01 1005.23 1005.57 1006.04 1006.44
1014.34 1014.39 1014.59 1014.57 1014.58 1014.63 1014.76 1014.87 1014.76 1014.70 1014.81 1014.91 1014.80 1014.69 1014.38 1014.30 1013.91 1013.56 1012.97 1012.57 1011.71 1010.98 1010.75 1010.28 1009.70 1009.41 1008.43 1007.91 1007.36 1006.81 1006.19 1005.59 1005.18 1004.75 1004.73 1005.05 1005.58 1006.02
1015.00 1015.07 1014.98 1014.97 1014.96 1015.01 1015.13 1015.08 1015.03 1015.05 1014.88 1014.89 1014.82 1014.75 1014.31 1014.09 1013.83 1013.26 1012.98 1012.44 1011.66 1010.93 1010.34 1009.62 1009.46 1009.00 1008.15 1007.31 1006.74 1006.33 1005.75 1005.23 1004.77 1004.42 1004.25 1004.42 1004.96 1005.53
1015.33 1015.28 1015.27 1015.38 1015.25 1015.25 1015.32 1015.31 1015.27 1015.21 1014.90 1014.67 1014.64 1014.32 1013.99 1013.60 1013.21 1012.80 1012.28 1011.83 1011.18 1010.52 1010.07 1009.49 1008.88 1008.41 1007.69 1006.99 1006.32 1005.95 1005.46 1005.03 1004.55 1004.05 1003.65 1003.70 1004.36 1004.90
1015.53 1015.44 1015.40 1015.52 1015.52 1015.41 1015.36 1015.45 1015.38 1015.16 1014.71 1014.40 1014.31 1014.10 1013.95 1013.44 1012.87 1012.44 1011.97 1011.50 1010.67 1010.30 1009.91 1009.59 1008.60 1008.21 1007.47 1006.55 1006.17 1005.72 1005.27 1004.90 1004.35 1003.49 1003.03 1003.42 1004.21 1004.88
1015.72 1015.66 1015.65 1015.66 1015.56 1015.47 1015.61 1015.70 1015.56 1015.33 1014.80 1014.52 1014.43 1014.00 1013.72 1013.16 1012.63 1012.23 1011.84 1011.54 1011.20 1010.25 1009.67 1009.56 1008.63 1008.61 1007.55 1006.71 1006.45 1006.19 1005.78 1005.07 1004.26 1002.87 1003.02 1003.78 1004.58 1005.34
1015.98 1015.93 1015.76 1015.65 1015.56 1015.60 1015.52 1015.63 1015.50 1014.96 1014.98 1014.85 1014.37 1013.91 1013.52 1013.08 1012.65 1012.23 1012.08 1011.76 1011.28 1010.70 1009.97 1009.70 1008.99 1008.62 1008.25 1007.22 1006.66 1006.18 1006.05 1005.63 1005.14 1004.33 1004.07 1004.52 1005.07 1005.58
1015.93 1015.87 1015.78 1015.76 1015.60 1015.59 1015.58 1015.45 1015.26 1015.26 1015.18 1014.89 1014.43 1013.91 1013.30 1012.83 1012.43 1012.09 1011.66 1011.22 1010.87 1010.55 1009.81 1009.74 1009.42 1008.73 1008.15 1007.56 1006.83 1006.23 1006.09 1006.03 1005.79 1005.47 1005.12 1005.34 1005.36 1005.47
1015.80 1015.73 1015.63 1015.56 1015.48 1015.51 1015.48 1015.36 1015.33 1015.33 1015.23 1014.73 1014.30 1013.86 1013.36 1012.91 1012.31 1011.80 1011.19 1010.60 1009.96 1009.79 1009.60 1009.47 1009.31 1008.73 1008.06 1007.59 1007.19 1006.59 1006.54 1006.46 1006.16 1005.82 1005.69 1005.69 1005.88 1005.99
1015.74 1015.70 1015.66 1015.58 1015.55 1015.49 1015.54 1015.52 1015.43 1015.20 1014.83 1014.55 1014.27 1013.94 1013.47 1012.93 1012.33 1011.63 1011.02 1010.36 1009.77 1009.37 1009.17 1009.02 1008.89 1008.53 1007.99 1007.53 1007.23 1006.84 1006.81 1006.77 1006.34 1006.24 1006.03 1006.09 1005.94 1005.81
1015.26 1015.38 1015.50 1015.56 1015.56 1015.57 1015.49 1015.36 1015.25 1014.99 1014.72 1014.47 1014.31 1013.95 1013.36 1012.71 1012.10 1011.49 1010.79 1010.20 1009.78 1009.41 1009.21 1008.80 1008.63 1008.34 1008.01 1007.71 1007.26 1007.01 1006.94 1006.75 1006.41 1006.44 1006.44 1006.37 1006.04 1005.83
1015.04 1015.23 1015.38 1015.38 1015.37 1015.19 1015.11 1015.03 1015.07 1014.93 1014.73 1014.64 1014.30 1013.79 1013.24 1012.69 1012.03 1011.26 1010.64 1010.17 1009.58 1009.00 1009.08 1008.67 1008.63 1008.52 1008.13 1007.77 1007.32 1007.19 1007.04 1006.89 1006.65 1006.64 1006.77 1006.83 1006.75 1006.30
1014.70 1014.89 1015.09 1015.07 1015.04 1015.08 1015.08 1014.99 1014.96 1014.83 1014.79 1014.59 1014.27 1013.72 1013.28 1012.71 1012.11 1011.42 1010.45 1009.96 1009.42 1008.96 1008.63 1008.38 1008.45 1008.56 1008.32 1007.96 1007.59 1007.26 1007.23 1007.20 1007.10 1007.10 1007.12 1007.03 1007.10 1006.69
1014.63 1014.83 1014.93 1014.90 1014.90 1014.87 1014.94 1014.92 1014.79 1014.66 1014.54 1014.24 1013.95 1013.56 1013.18 1012.68 1012.05 1011.45 1010.52 1009.84 1009.11 1008.60 1008.25 1008.09 1008.19 1008.12 1008.07 1007.86 1007.76 1007.49 1007.07 1007.30 1007.28 1007.31 1007.31 1007.10 1006.83 1006.45
1014.22 1014.41 1014.54 1014.53 1014.55 1014.59 1014.60 1014.52 1014.52 1014.36 1014.15 1014.20 1013.83 1013.29 1012.94 1012.50 1011.90 1011.25 1010.52 1009.69 1008.72 1008.32 1008.18 1007.97 1007.63 1007.44 1007.53 1007.75 1007.98 1007.80 1007.48 1007.25 1007.20 1007.32 1007.43 1007.38 1007.49 1007.14
1013.72 1013.94 1014.07 1014.11 1014.12 1014.16 1014.09 1014.07 1013.99 1013.89 1013.88 1013.66 1013.30 1012.90 1012.51 1012.19 1011.57 1010.88 1010.24 1009.54 1008.65 1008.08 1007.86 1007.59 1007.36 1007.53 1007.65 1007.74 1007.96 1007.87 1007.82 1007.63 1007.32 1007.27 1007.32 1007.51 1007.65 1007.67
1013.05 1013.30 1013.47 1013.52 1013.53 1013.62 1013.60 1013.60 1013.64 1013.40 1013.31 1013.06 1012.83 1012.53 1012.17 1011.66 1011.11 1010.48 1009.83 1009.16 1008.46 1007.78 1007.55 1007.46 1007.43 1007.56 1007.64 1007.82 1007.93 1008.00 1008.13 1008.09 1007.86 1007.83 1007.68 1007.27 1007.40 1007.51
Wind_Speed
9 8 8 7 6 7 5 3 3 3 4 3 4 1 2 4 4 3 4 6 11 13 16 16 14 16 20 22 22 21 18 14 13 17 19 18 18 18
6 7 6 3 3 3 3 3 3 5 5 2 3 4 3 2 3 4 4 6 11 16 17 17 17 18 19 20 21 22 21 19 19 22 24 23 21 20
2 4 4 4 5 4 5 4 3 2 2 1 3 3 5 5 4 3 4 4 4 10 13 14 16 18 19 20 21 22 22 22 23 25 26 25 23 21
6 6 8 6 7 6 5 5 4 4 2 1 2 3 2 4 5 6 4 4 5 10 18 19 18 17 16 16 18 20 20 22 23 26 23 23 22 21
6 7 7 6 6 5 5 4 3 3 3 2 2 2 2 3 4 3 4 5 4 10 15 19 21 21 19 19 19 20 20 21 24 22 21 20 21 21
6 6 5 7 6 5 5 5 4 3 3 1 2 3 2 3 2 4 5 3 4 6 9 13 17 19 19 19 19 19 20 20 23 20 20 19 18 19
5 5 6 10 14 11 4 4 4 3 3 3 3 3 3 4 4 4 6 7 6 5 7 5 7 8 7 13 14 19 19 20 21 23 21 22 20 18
5 6 7 9 10 12 11 10 8 4 3 2 2 3 4 4 4 5 8 8 8 4 4 10 4 9 10 7 18 22 21 20 19 18 18 19 18 17
5 4 5 5 7 5 8 9 8 8 7 3 4 3 5 4 5 7 8 8 9 8 7 8 6 10 8 9 18 20 20 20 20 19 21 19 19 18
5 4 5 4 5 6 4 4 4 5 5 3 4 7 9 11 7 8 10 8 6 7 4 7 6 8 9 8 18 18 20 22 21 20 21 19 18 16
4 3 5 4 9 12 6 7 6 6 7 12 14 14 16 17 14 8 6 6 7 7 4 5 4 5 4 8 6 13 17 20 21 23 17 18 15 11
5 5 4 3 9 11 5 4 5 6 7 6 5 6 11 10 15 7 6 7 7 5 1 3 6 2 5 1 3 4 6 15 19 4 8 10 8 3
3 4 3 10 11 10 10 2 5 8 7 5 5 5 6 6 6 6 7 7 7 6 7 4 3 3 3 4 2 2 4 6 6 6 7 10 7 2
3 3 4 9 11 10 7 10 11 8 4 4 5 5 6 6 7 6 8 9 7 10 9 3 4 4 3 5 4 3 2 3 2 1 3 4 4 5
2 5 9 11 9 4 7 9 8 3 3 4 5 6 5 7 9 8 8 9 8 8 5 3 4 6 4 4 5 2 4 2 2 1 1 2 1 0
6 5 7 8 9 5 4 3 3 3 4 4 5 6 6 6 7 7 7 7 7 6 4 2 3 4 4 4 3 4 2 3 1 1 2 1 2 2
7 0 1 2 2 2 2 3 3 3 3 3 5 6 7 7 7 7 7 7 6 5 5 1 3 2 2 4 3 2 1 1 1 1 2 1 3 3
6 5 2 2 2 2 3 2 6 7 4 5 6 6 7 7 9 8 7 7 7 4 5 1 1 2 2 3 7 2 2 1 1 2 1 2 3 3
6 6 3 2 2 1 2 3 5 4 5 4 6 6 7 6 11 8 7 7 7 4 5 2 2 2 1 2 3 7 0 1 1 1 0 1 1 3
4 3 2 2 2 3 5 4 5 5 5 6 5 6 6 6 7 8 8 8 7 5 4 2 2 3 3 2 1 2 3 2 1 1 1 1 2 7
5 5 4 4 3 5 4 4 4 6 6 2 6 5 6 6 7 7 8 15 14 4 4 4 3 6 3 2 1 1 2 4 4 3 1 3 2 3
4 6 5 5 3 5 5 6 5 5 5 4 5 6 6 6 7 8 8 8 8 5 4 3 0 2 1 2 2 1 2 2 7 9 3 3 2 3
2 4 4 5 3 5 6 3 3 5 4 5 5 6 6 7 7 7 8 8 9 5 2 1 1 1 1 2 4 1 5 3 1 5 4 2 4 12
Wind_Direction
240 231 239 238 215 210 206 192 190 214 236 238 223 350 33 26 29 330 298 307 319 320 316 308 301 300 303 304 299 294 278 263 262 263 204 208 208 223
237 233 222 205 215 207 218 200 212 228 243 230 64 61 39 24 21 336 325 335 335 335 327 323 319 314 308 305 299 290 284 270 262 254 214 213 214 222
268 158 55 42 72 57 60 57 60 57 57 343 40 359 12 355 341 343 325 312 279 290 300 304 310 312 313 312 309 303 285 276 270 252 221 219 219 221
89 50 84 70 72 57 62 55 51 36 52 232 304 14 338 345 326 318 313 293 288 300 309 308 303 298 292 293 296 298 296 282 273 257 225 221 223 223
48 75 66 83 68 69 65 61 43 35 43 20 314 12 298 339 326 308 307 301 307 307 316 313 304 301 296 297 303 304 300 297 273 242 220 219 221 222
65 65 82 70 75 75 65 45 39 37 23 355 291 289 285 294 296 319 315 305 305 302 301 295 300 300 298 297 302 298 298 299 275 228 221 214 217 218
57 68 61 63 75 68 66 34 26 21 359 350 324 316 310 336 328 326 315 316 299 284 286 290 309 308 288 294 288 282 282 293 293 240 221 213 210 211
57 56 68 62 61 55 46 36 27 16 358 319 259 297 300 309 306 309 319 313 309 273 330 300 305 300 297 290 276 279 284 290 291 264 236 223 209 204
70 72 80 62 60 44 21 17 7 351 339 332 304 291 297 297 292 306 292 289 291 288 284 298 295 287 286 282 293 292 292 292 288 288 243 212 202 203
76 79 90 73 35 20 7 359 350 329 316 310 293 304 303 304 276 277 284 284 283 285 287 291 290 285 293 286 289 296 301 299 294 283 262 200 197 195
36 36 88 60 15 2 14 347 330 321 320 325 316 316 318 315 308 310 304 313 312 306 294 280 287 290 278 294 310 328 325 313 304 291 240 195 190 190
6 22 73 43 2 347 346 330 324 298 310 322 323 307 314 312 318 319 318 310 307 300 283 292 302 275 306 312 313 324 325 323 313 339 155 149 142 85
5 351 353 351 338 333 331 331 270 320 345 312 303 303 312 317 321 313 306 291 292 275 282 319 303 287 228 298 289 312 336 323 336 356 115 104 99 162
298 307 305 317 322 328 335 310 328 349 325 308 311 312 320 323 307 296 291 286 268 264 282 266 272 286 284 293 275 333 340 325 311 327 61 75 57 326
322 311 327 323 322 333 317 333 349 334 309 305 318 315 310 296 299 295 292 300 274 266 266 241 276 291 268 271 292 297 317 328 297 69 88 92 97 60
331 314 308 320 319 315 335 325 322 309 307 316 308 306 294 295 298 296 301 306 309 311 270 253 305 302 297 270 275 286 249 277 357 19 49 23 325 301
293 266 295 304 281 283 300 294 336 295 306 315 318 305 301 301 302 299 291 300 278 293 300 303 306 311 329 322 292 275 284 303 17 87 65 22 348 334
287 281 259 249 251 281 304 308 329 322 331 322 311 306 307 313 311 306 298 296 294 299 295 257 288 302 285 275 27 319 339 6 24 72 52 65 334 316
274 281 260 235 243 265 266 319 308 316 312 297 291 291 296 299 314 308 301 298 294 292 284 229 194 201 259 263 303 359 312 18 18 79 11 104 251 287
276 279 262 246 233 277 300 293 303 305 299 286 284 293 293 293 304 301 304 301 291 281 278 218 217 198 211 236 197 302 315 132 107 78 46 45 1 1
273 281 282 276 286 289 291 294 290 297 294 291 286 280 286 290 293 292 295 309 310 309 297 277 239 247 141 93 83 319 345 120 127 130 114 64 347 359
266 280 276 277 264 287 287 295 290 282 268 262 282 291 290 284 288 294 296 300 300 282 262 257 128 111 182 128 141 145 106 56 70 80 32 214 180 147
209 240 246 268 257 277 282 255 257 275 264 275 283 289 289 290 288 288 291 291 294 284 241 254 146 123 103 138 152 102 123 116 63 82 44 83 136 107